Year,Month,Day,Hour,Minute,Value (Times are PST for temperature in C)
2012,06,20,00,00,10.70
2012,06,20,00,01,10.70
2012,06,20,00,02,10.70
2012,06,20,00,03,10.60
2012,06,20,00,04,10.60
2012,06,20,00,05,10.50
2012,06,20,00,06,10.50
2012,06,20,00,07,10.50
2012,06,20,00,08,10.40
2012,06,20,00,09,10.40
2012,06,20,00,10,10.40
2012,06,20,00,11,10.30
2012,06,20,00,12,10.30
2012,06,20,00,13,10.30
2012,06,20,00,14,10.30
2012,06,20,00,15,10.30
2012,06,20,00,16,10.30
2012,06,20,00,17,10.30
2012,06,20,00,18,10.20
2012,06,20,00,19,10.20
2012,06,20,00,20,10.20
2012,06,20,00,21,10.20
2012,06,20,00,22,10.10
2012,06,20,00,23,10.10
2012,06,20,00,24,10.10
2012,06,20,00,25,10.00
2012,06,20,00,26,10.00
2012,06,20,00,27,10.00
2012,06,20,00,28,9.90
2012,06,20,00,29,9.90
2012,06,20,00,30,9.90
2012,06,20,00,31,9.90
2012,06,20,00,32,9.90
2012,06,20,00,33,9.90
2012,06,20,00,34,9.90
2012,06,20,00,35,9.90
2012,06,20,00,36,9.90
2012,06,20,00,37,9.90
2012,06,20,00,38,9.90
2012,06,20,00,39,9.90
2012,06,20,00,40,9.90
2012,06,20,00,41,9.90
2012,06,20,00,42,9.90
2012,06,20,00,43,9.90
2012,06,20,00,44,9.90
2012,06,20,00,45,9.90
2012,06,20,00,46,9.90
2012,06,20,00,47,9.90
2012,06,20,00,48,9.90
2012,06,20,00,49,9.90
2012,06,20,00,50,9.90
2012,06,20,00,51,9.90
2012,06,20,00,52,9.90
2012,06,20,00,53,9.90
2012,06,20,00,54,9.90
2012,06,20,00,55,9.90
2012,06,20,00,56,9.90
2012,06,20,00,57,9.90
2012,06,20,00,58,9.90
2012,06,20,00,59,9.80
2012,06,20,01,00,9.80
2012,06,20,01,01,9.80
2012,06,20,01,02,9.80
2012,06,20,01,03,9.80
2012,06,20,01,04,9.70
2012,06,20,01,05,9.70
2012,06,20,01,06,9.70
2012,06,20,01,07,9.70
2012,06,20,01,08,9.70
2012,06,20,01,09,9.70
2012,06,20,01,10,9.70
2012,06,20,01,11,9.70
2012,06,20,01,12,9.70
2012,06,20,01,13,9.70
2012,06,20,01,14,9.60
2012,06,20,01,15,9.60
2012,06,20,01,16,9.60
2012,06,20,01,17,9.60
2012,06,20,01,18,9.50
2012,06,20,01,19,9.50
2012,06,20,01,20,9.50
2012,06,20,01,21,9.50
2012,06,20,01,22,9.50
2012,06,20,01,23,9.50
2012,06,20,01,24,9.50
2012,06,20,01,25,9.50
2012,06,20,01,26,9.50
2012,06,20,01,27,9.40
2012,06,20,01,28,9.40
2012,06,20,01,29,9.40
2012,06,20,01,30,9.40
2012,06,20,01,31,9.40
2012,06,20,01,32,9.40
2012,06,20,01,33,9.40
2012,06,20,01,34,9.40
2012,06,20,01,35,9.40
2012,06,20,01,36,9.40
2012,06,20,01,37,9.40
2012,06,20,01,38,9.40
2012,06,20,01,39,9.40
2012,06,20,01,40,9.40
2012,06,20,01,41,9.40
2012,06,20,01,42,9.40
2012,06,20,01,43,9.40
2012,06,20,01,44,9.30
2012,06,20,01,45,9.30
2012,06,20,01,46,9.30
2012,06,20,01,47,9.30
2012,06,20,01,48,9.30
2012,06,20,01,49,9.30
2012,06,20,01,50,9.30
2012,06,20,01,51,9.30
2012,06,20,01,52,9.20
2012,06,20,01,53,9.20
2012,06,20,01,54,9.20
2012,06,20,01,55,9.20
2012,06,20,01,56,9.20
2012,06,20,01,57,9.20
2012,06,20,01,58,9.20
2012,06,20,01,59,9.20
2012,06,20,02,00,9.20
2012,06,20,02,01,9.20
2012,06,20,02,02,9.20
2012,06,20,02,03,9.20
2012,06,20,02,04,9.20
2012,06,20,02,05,9.20
2012,06,20,02,06,9.20
2012,06,20,02,07,9.20
2012,06,20,02,08,9.20
2012,06,20,02,09,9.20
2012,06,20,02,10,9.20
2012,06,20,02,11,9.20
2012,06,20,02,12,9.20
2012,06,20,02,13,9.10
2012,06,20,02,14,9.10
2012,06,20,02,15,9.10
2012,06,20,02,16,9.10
2012,06,20,02,17,9.10
2012,06,20,02,18,9.20
2012,06,20,02,19,9.20
2012,06,20,02,20,9.20
2012,06,20,02,21,9.20
2012,06,20,02,22,9.10
2012,06,20,02,23,9.10
2012,06,20,02,24,9.10
2012,06,20,02,25,9.10
2012,06,20,02,26,9.10
2012,06,20,02,27,9.10
2012,06,20,02,28,9.10
2012,06,20,02,29,9.10
2012,06,20,02,30,9.10
2012,06,20,02,31,9.10
2012,06,20,02,32,9.00
2012,06,20,02,33,9.00
2012,06,20,02,34,9.00
2012,06,20,02,35,9.00
2012,06,20,02,36,9.00
2012,06,20,02,37,9.00
2012,06,20,02,38,9.00
2012,06,20,02,39,8.90
2012,06,20,02,40,8.90
2012,06,20,02,41,8.90
2012,06,20,02,42,8.90
2012,06,20,02,43,8.90
2012,06,20,02,44,8.90
2012,06,20,02,45,9.00
2012,06,20,02,46,9.00
2012,06,20,02,47,9.00
2012,06,20,02,48,9.10
2012,06,20,02,49,9.10
2012,06,20,02,50,9.10
2012,06,20,02,51,9.10
2012,06,20,02,52,9.10
2012,06,20,02,53,9.10
2012,06,20,02,54,9.10
2012,06,20,02,55,9.10
2012,06,20,02,56,9.10
2012,06,20,02,57,9.10
2012,06,20,02,58,9.10
2012,06,20,02,59,9.00
2012,06,20,03,00,9.00
2012,06,20,03,01,8.90
2012,06,20,03,02,8.90
2012,06,20,03,03,8.90
2012,06,20,03,04,8.90
2012,06,20,03,05,8.80
2012,06,20,03,06,8.80
2012,06,20,03,07,8.80
2012,06,20,03,08,8.80
2012,06,20,03,09,8.80
2012,06,20,03,10,8.70
2012,06,20,03,11,8.70
2012,06,20,03,12,8.70
2012,06,20,03,13,8.70
2012,06,20,03,14,8.70
2012,06,20,03,15,8.70
2012,06,20,03,16,8.70
2012,06,20,03,17,8.70
2012,06,20,03,18,8.70
2012,06,20,03,19,8.70
2012,06,20,03,20,8.70
2012,06,20,03,21,8.70
2012,06,20,03,22,8.70
2012,06,20,03,23,8.70
2012,06,20,03,24,8.60
2012,06,20,03,25,8.60
2012,06,20,03,26,8.60
2012,06,20,03,27,8.60
2012,06,20,03,28,8.60
2012,06,20,03,29,8.60
2012,06,20,03,30,8.50
2012,06,20,03,31,8.50
2012,06,20,03,32,8.50
2012,06,20,03,33,8.50
2012,06,20,03,34,8.40
2012,06,20,03,35,8.40
2012,06,20,03,36,8.40
2012,06,20,03,37,8.40
2012,06,20,03,38,8.40
2012,06,20,03,39,8.40
2012,06,20,03,40,8.40
2012,06,20,03,41,8.40
2012,06,20,03,42,8.40
2012,06,20,03,43,8.40
2012,06,20,03,44,8.40
2012,06,20,03,45,8.40
2012,06,20,03,46,8.40
2012,06,20,03,47,8.40
2012,06,20,03,48,8.40
2012,06,20,03,49,8.40
2012,06,20,03,50,8.40
2012,06,20,03,51,8.40
2012,06,20,03,52,8.40
2012,06,20,03,53,8.40
2012,06,20,03,54,8.40
2012,06,20,03,55,8.40
2012,06,20,03,56,8.40
2012,06,20,03,57,8.50
2012,06,20,03,58,8.50
2012,06,20,03,59,8.50
2012,06,20,04,00,8.50
2012,06,20,04,01,8.50
2012,06,20,04,02,8.50
2012,06,20,04,03,8.50
2012,06,20,04,04,8.50
2012,06,20,04,05,8.50
2012,06,20,04,06,8.50
2012,06,20,04,07,8.50
2012,06,20,04,08,8.50
2012,06,20,04,09,8.40
2012,06,20,04,10,8.40
2012,06,20,04,11,8.40
2012,06,20,04,12,8.40
2012,06,20,04,13,8.40
2012,06,20,04,14,8.30
2012,06,20,04,15,8.30
2012,06,20,04,16,8.30
2012,06,20,04,17,8.40
2012,06,20,04,18,8.40
2012,06,20,04,19,8.40
2012,06,20,04,20,8.40
2012,06,20,04,21,8.40
2012,06,20,04,22,8.40
2012,06,20,04,23,8.40
2012,06,20,04,24,8.40
2012,06,20,04,25,8.30
2012,06,20,04,26,8.30
2012,06,20,04,27,8.30
2012,06,20,04,28,8.30
2012,06,20,04,29,8.30
2012,06,20,04,30,8.30
2012,06,20,04,31,8.30
2012,06,20,04,32,8.30
2012,06,20,04,33,8.20
2012,06,20,04,34,8.20
2012,06,20,04,35,8.20
2012,06,20,04,36,8.30
2012,06,20,04,37,8.30
2012,06,20,04,38,8.30
2012,06,20,04,39,8.30
2012,06,20,04,40,8.30
2012,06,20,04,41,8.30
2012,06,20,04,42,8.30
2012,06,20,04,43,8.30
2012,06,20,04,44,8.30
2012,06,20,04,45,8.40
2012,06,20,04,46,8.40
2012,06,20,04,47,8.30
2012,06,20,04,48,8.30
2012,06,20,04,49,8.30
2012,06,20,04,50,8.20
2012,06,20,04,51,8.20
2012,06,20,04,52,8.20
2012,06,20,04,53,8.20
2012,06,20,04,54,8.10
2012,06,20,04,55,8.10
2012,06,20,04,56,8.10
2012,06,20,04,57,8.00
2012,06,20,04,58,8.00
2012,06,20,04,59,8.00
2012,06,20,05,00,8.00
2012,06,20,05,01,8.00
2012,06,20,05,02,7.90
2012,06,20,05,03,7.90
2012,06,20,05,04,8.00
2012,06,20,05,05,8.00
2012,06,20,05,06,8.00
2012,06,20,05,07,8.00
2012,06,20,05,08,8.00
2012,06,20,05,09,8.00
2012,06,20,05,10,8.00
2012,06,20,05,11,8.00
2012,06,20,05,12,7.90
2012,06,20,05,13,7.90
2012,06,20,05,14,7.90
2012,06,20,05,15,7.90
2012,06,20,05,16,7.90
2012,06,20,05,17,7.90
2012,06,20,05,18,7.90
2012,06,20,05,19,7.90
2012,06,20,05,20,7.90
2012,06,20,05,21,8.00
2012,06,20,05,22,7.90
2012,06,20,05,23,7.90
2012,06,20,05,24,7.90
2012,06,20,05,25,7.90
2012,06,20,05,26,7.90
2012,06,20,05,27,7.90
2012,06,20,05,28,7.90
2012,06,20,05,29,8.00
2012,06,20,05,30,8.00
2012,06,20,05,31,8.00
2012,06,20,05,32,8.00
2012,06,20,05,33,8.00
2012,06,20,05,34,8.00
2012,06,20,05,35,8.00
2012,06,20,05,36,8.00
2012,06,20,05,37,8.00
2012,06,20,05,38,8.00
2012,06,20,05,39,8.00
2012,06,20,05,40,7.90
2012,06,20,05,41,7.90
2012,06,20,05,42,7.90
2012,06,20,05,43,7.90
2012,06,20,05,44,7.90
2012,06,20,05,45,7.90
2012,06,20,05,46,7.90
2012,06,20,05,47,8.00
2012,06,20,05,48,8.00
2012,06,20,05,49,8.00
2012,06,20,05,50,8.00
2012,06,20,05,51,8.00
2012,06,20,05,52,8.10
2012,06,20,05,53,8.10
2012,06,20,05,54,8.10
2012,06,20,05,55,8.10
2012,06,20,05,56,8.10
2012,06,20,05,57,8.10
2012,06,20,05,58,8.20
2012,06,20,05,59,8.20
2012,06,20,06,00,8.20
2012,06,20,06,01,8.20
2012,06,20,06,02,8.20
2012,06,20,06,03,8.30
2012,06,20,06,04,8.30
2012,06,20,06,05,8.30
2012,06,20,06,06,8.30
2012,06,20,06,07,8.30
2012,06,20,06,08,8.30
2012,06,20,06,09,8.30
2012,06,20,06,10,8.40
2012,06,20,06,11,8.40
2012,06,20,06,12,8.40
2012,06,20,06,13,8.40
2012,06,20,06,14,8.50
2012,06,20,06,15,8.50
2012,06,20,06,16,8.60
2012,06,20,06,17,8.60
2012,06,20,06,18,8.60
2012,06,20,06,19,8.60
2012,06,20,06,20,8.70
2012,06,20,06,21,8.70
2012,06,20,06,22,8.70
2012,06,20,06,23,8.80
2012,06,20,06,24,8.80
2012,06,20,06,25,8.80
2012,06,20,06,26,8.90
2012,06,20,06,27,8.90
2012,06,20,06,28,8.90
2012,06,20,06,29,9.00
2012,06,20,06,30,9.00
2012,06,20,06,31,9.10
2012,06,20,06,32,9.10
2012,06,20,06,33,9.10
2012,06,20,06,34,9.20
2012,06,20,06,35,9.20
2012,06,20,06,36,9.30
2012,06,20,06,37,9.30
2012,06,20,06,38,9.30
2012,06,20,06,39,9.40
2012,06,20,06,40,9.40
2012,06,20,06,41,9.50
2012,06,20,06,42,9.50
2012,06,20,06,43,9.50
2012,06,20,06,44,9.60
2012,06,20,06,45,9.60
2012,06,20,06,46,9.70
2012,06,20,06,47,9.70
2012,06,20,06,48,9.70
2012,06,20,06,49,9.80
2012,06,20,06,50,9.80
2012,06,20,06,51,9.90
2012,06,20,06,52,10.00
2012,06,20,06,53,10.10
2012,06,20,06,54,10.10
2012,06,20,06,55,10.20
2012,06,20,06,56,10.30
2012,06,20,06,57,10.30
2012,06,20,06,58,10.40
2012,06,20,06,59,10.50
2012,06,20,07,00,10.60
2012,06,20,07,01,10.70
2012,06,20,07,02,10.80
2012,06,20,07,03,10.80
2012,06,20,07,04,10.90
2012,06,20,07,05,11.00
2012,06,20,07,06,11.10
2012,06,20,07,07,11.20
2012,06,20,07,08,11.30
2012,06,20,07,09,11.40
2012,06,20,07,10,11.40
2012,06,20,07,11,11.50
2012,06,20,07,12,11.60
2012,06,20,07,13,11.70
2012,06,20,07,14,11.80
2012,06,20,07,15,11.80
2012,06,20,07,16,11.90
2012,06,20,07,17,12.00
2012,06,20,07,18,12.10
2012,06,20,07,19,12.20
2012,06,20,07,20,12.20
2012,06,20,07,21,12.30
2012,06,20,07,22,12.40
2012,06,20,07,23,12.50
2012,06,20,07,24,12.60
2012,06,20,07,25,12.70
2012,06,20,07,26,12.80
2012,06,20,07,27,12.90
2012,06,20,07,28,13.00
2012,06,20,07,29,13.10
2012,06,20,07,30,13.20
2012,06,20,07,31,13.30
2012,06,20,07,32,13.30
2012,06,20,07,33,13.40
2012,06,20,07,34,13.40
2012,06,20,07,35,13.50
2012,06,20,07,36,13.50
2012,06,20,07,37,13.60
2012,06,20,07,38,13.60
2012,06,20,07,39,13.60
2012,06,20,07,40,13.70
2012,06,20,07,41,13.70
2012,06,20,07,42,13.80
2012,06,20,07,43,13.80
2012,06,20,07,44,13.90
2012,06,20,07,45,14.00
2012,06,20,07,46,14.10
2012,06,20,07,47,14.20
2012,06,20,07,48,14.30
2012,06,20,07,49,14.40
2012,06,20,07,50,14.40
2012,06,20,07,51,14.50
2012,06,20,07,52,14.50
2012,06,20,07,53,14.60
2012,06,20,07,54,14.60
2012,06,20,07,55,14.60
2012,06,20,07,56,14.60
2012,06,20,07,57,14.60
2012,06,20,07,58,14.60
2012,06,20,07,59,14.60
2012,06,20,08,00,14.70
2012,06,20,08,01,14.70
2012,06,20,08,02,14.70
2012,06,20,08,03,14.70
2012,06,20,08,04,14.70
2012,06,20,08,05,14.70
2012,06,20,08,06,14.80
2012,06,20,08,07,14.80
2012,06,20,08,08,14.80
2012,06,20,08,09,14.90
2012,06,20,08,10,14.90
2012,06,20,08,11,15.00
2012,06,20,08,12,15.00
2012,06,20,08,13,15.00
2012,06,20,08,14,15.10
2012,06,20,08,15,15.20
2012,06,20,08,16,15.20
2012,06,20,08,17,15.20
2012,06,20,08,18,15.20
2012,06,20,08,19,15.20
2012,06,20,08,20,15.20
2012,06,20,08,21,15.20
2012,06,20,08,22,15.10
2012,06,20,08,23,15.10
2012,06,20,08,24,15.10
2012,06,20,08,25,15.10
2012,06,20,08,26,15.00
2012,06,20,08,27,15.00
2012,06,20,08,28,14.90
2012,06,20,08,29,14.80
2012,06,20,08,30,14.80
2012,06,20,08,31,14.80
2012,06,20,08,32,14.70
2012,06,20,08,33,14.60
2012,06,20,08,34,14.60
2012,06,20,08,35,14.60
2012,06,20,08,36,14.60
2012,06,20,08,37,14.60
2012,06,20,08,38,14.60
2012,06,20,08,39,14.60
2012,06,20,08,40,14.60
2012,06,20,08,41,14.60
2012,06,20,08,42,14.60
2012,06,20,08,43,14.50
2012,06,20,08,44,14.60
2012,06,20,08,45,14.60
2012,06,20,08,46,14.60
2012,06,20,08,47,14.60
2012,06,20,08,48,14.60
2012,06,20,08,49,14.70
2012,06,20,08,50,14.70
2012,06,20,08,51,14.80
2012,06,20,08,52,14.90
2012,06,20,08,53,14.90
2012,06,20,08,54,14.90
2012,06,20,08,55,14.90
2012,06,20,08,56,14.90
2012,06,20,08,57,14.80
2012,06,20,08,58,14.80
2012,06,20,08,59,14.80
2012,06,20,09,00,14.80
2012,06,20,09,01,14.80
2012,06,20,09,02,14.80
2012,06,20,09,03,14.80
2012,06,20,09,04,14.80
2012,06,20,09,05,14.80
2012,06,20,09,06,14.80
2012,06,20,09,07,14.80
2012,06,20,09,08,14.80
2012,06,20,09,09,14.80
2012,06,20,09,10,14.80
2012,06,20,09,11,14.80
2012,06,20,09,12,14.80
2012,06,20,09,13,14.80
2012,06,20,09,14,14.90
2012,06,20,09,15,14.90
2012,06,20,09,16,14.90
2012,06,20,09,17,14.90
2012,06,20,09,18,14.90
2012,06,20,09,19,15.00
2012,06,20,09,20,15.00
2012,06,20,09,21,15.00
2012,06,20,09,22,15.00
2012,06,20,09,23,14.90
2012,06,20,09,24,14.90
2012,06,20,09,25,14.90
2012,06,20,09,26,14.90
2012,06,20,09,27,15.00
2012,06,20,09,28,15.00
2012,06,20,09,29,15.00
2012,06,20,09,30,14.90
2012,06,20,09,31,14.90
2012,06,20,09,32,14.90
2012,06,20,09,33,14.90
2012,06,20,09,34,14.90
2012,06,20,09,35,14.90
2012,06,20,09,36,14.80
2012,06,20,09,37,14.80
2012,06,20,09,38,14.80
2012,06,20,09,39,14.90
2012,06,20,09,40,15.00
2012,06,20,09,41,15.10
2012,06,20,09,42,15.10
2012,06,20,09,43,15.10
2012,06,20,09,44,15.10
2012,06,20,09,45,15.20
2012,06,20,09,46,15.30
2012,06,20,09,47,15.30
2012,06,20,09,48,15.30
2012,06,20,09,49,15.20
2012,06,20,09,50,15.10
2012,06,20,09,51,15.10
2012,06,20,09,52,15.10
2012,06,20,09,53,15.10
2012,06,20,09,54,15.00
2012,06,20,09,55,15.00
2012,06,20,09,56,14.90
2012,06,20,09,57,14.90
2012,06,20,09,58,14.80
2012,06,20,09,59,14.70
2012,06,20,10,00,14.80
2012,06,20,10,01,14.80
2012,06,20,10,02,14.80
2012,06,20,10,03,14.90
2012,06,20,10,04,14.90
2012,06,20,10,05,14.90
2012,06,20,10,06,14.80
2012,06,20,10,07,14.80
2012,06,20,10,08,14.80
2012,06,20,10,09,14.80
2012,06,20,10,10,14.80
2012,06,20,10,11,14.80
2012,06,20,10,12,14.80
2012,06,20,10,13,14.90
2012,06,20,10,14,14.90
2012,06,20,10,15,15.00
2012,06,20,10,16,15.00
2012,06,20,10,17,15.10
2012,06,20,10,18,15.00
2012,06,20,10,19,15.00
2012,06,20,10,20,15.10
2012,06,20,10,21,15.20
2012,06,20,10,22,15.30
2012,06,20,10,23,15.30
2012,06,20,10,24,15.30
2012,06,20,10,25,15.30
2012,06,20,10,26,15.40
2012,06,20,10,27,15.50
2012,06,20,10,28,15.50
2012,06,20,10,29,15.40
2012,06,20,10,30,15.40
2012,06,20,10,31,15.30
2012,06,20,10,32,15.30
2012,06,20,10,33,15.30
2012,06,20,10,34,15.30
2012,06,20,10,35,15.30
2012,06,20,10,36,15.20
2012,06,20,10,37,15.20
2012,06,20,10,38,15.20
2012,06,20,10,39,15.20
2012,06,20,10,40,15.20
2012,06,20,10,41,15.20
2012,06,20,10,42,15.20
2012,06,20,10,43,15.20
2012,06,20,10,44,15.20
2012,06,20,10,45,15.10
2012,06,20,10,46,15.20
2012,06,20,10,47,15.20
2012,06,20,10,48,15.30
2012,06,20,10,49,15.40
2012,06,20,10,50,15.50
2012,06,20,10,51,15.70
2012,06,20,10,52,15.80
2012,06,20,10,53,15.80
2012,06,20,10,54,15.90
2012,06,20,10,55,15.80
2012,06,20,10,56,15.80
2012,06,20,10,57,15.70
2012,06,20,10,58,15.80
2012,06,20,10,59,15.70
2012,06,20,11,00,15.70
2012,06,20,11,01,15.70
2012,06,20,11,02,15.60
2012,06,20,11,03,15.60
2012,06,20,11,04,15.50
2012,06,20,11,05,15.50
2012,06,20,11,06,15.60
2012,06,20,11,07,15.70
2012,06,20,11,08,15.80
2012,06,20,11,09,15.80
2012,06,20,11,10,15.80
2012,06,20,11,11,15.70
2012,06,20,11,12,15.70
2012,06,20,11,13,15.70
2012,06,20,11,14,15.70
2012,06,20,11,15,15.80
2012,06,20,11,16,15.90
2012,06,20,11,17,16.00
2012,06,20,11,18,16.00
2012,06,20,11,19,16.10
2012,06,20,11,20,16.10
2012,06,20,11,21,16.00
2012,06,20,11,22,16.00
2012,06,20,11,23,15.80
2012,06,20,11,24,15.80
2012,06,20,11,25,15.80
2012,06,20,11,26,15.80
2012,06,20,11,27,15.80
2012,06,20,11,28,15.80
2012,06,20,11,29,15.80
2012,06,20,11,30,15.80
2012,06,20,11,31,15.80
2012,06,20,11,32,15.80
2012,06,20,11,33,15.80
2012,06,20,11,34,15.90
2012,06,20,11,35,16.00
2012,06,20,11,36,16.10
2012,06,20,11,37,16.20
2012,06,20,11,38,16.30
2012,06,20,11,39,16.40
2012,06,20,11,40,16.40
2012,06,20,11,41,16.40
2012,06,20,11,42,16.30
2012,06,20,11,43,16.30
2012,06,20,11,44,16.30
2012,06,20,11,45,16.30
2012,06,20,11,46,16.30
2012,06,20,11,47,16.40
2012,06,20,11,48,16.40
2012,06,20,11,49,16.40
2012,06,20,11,50,16.30
2012,06,20,11,51,16.30
2012,06,20,11,52,16.20
2012,06,20,11,53,16.20
2012,06,20,11,54,16.10
2012,06,20,11,55,16.10
2012,06,20,11,56,16.20
2012,06,20,11,57,16.20
2012,06,20,11,58,16.40
2012,06,20,11,59,16.40
2012,06,20,12,00,16.40
2012,06,20,12,01,16.40
2012,06,20,12,02,16.50
2012,06,20,12,03,16.50
2012,06,20,12,04,16.50
2012,06,20,12,05,16.60
2012,06,20,12,06,16.60
2012,06,20,12,07,16.70
2012,06,20,12,08,16.70
2012,06,20,12,09,16.70
2012,06,20,12,10,16.70
2012,06,20,12,11,16.60
2012,06,20,12,12,16.70
2012,06,20,12,13,16.80
2012,06,20,12,14,16.80
2012,06,20,12,15,16.90
2012,06,20,12,16,16.90
2012,06,20,12,17,17.00
2012,06,20,12,18,17.00
2012,06,20,12,19,16.90
2012,06,20,12,20,16.90
2012,06,20,12,21,16.90
2012,06,20,12,22,16.80
2012,06,20,12,23,16.70
2012,06,20,12,24,16.70
2012,06,20,12,25,16.70
2012,06,20,12,26,16.70
2012,06,20,12,27,16.70
2012,06,20,12,28,16.70
2012,06,20,12,29,16.70
2012,06,20,12,30,16.70
2012,06,20,12,31,16.70
2012,06,20,12,32,16.70
2012,06,20,12,33,16.70
2012,06,20,12,34,16.70
2012,06,20,12,35,16.60
2012,06,20,12,36,16.60
2012,06,20,12,37,16.60
2012,06,20,12,38,16.50
2012,06,20,12,39,16.60
2012,06,20,12,40,16.60
2012,06,20,12,41,16.60
2012,06,20,12,42,16.60
2012,06,20,12,43,16.70
2012,06,20,12,44,16.70
2012,06,20,12,45,16.70
2012,06,20,12,46,16.60
2012,06,20,12,47,16.50
2012,06,20,12,48,16.40
2012,06,20,12,49,16.50
2012,06,20,12,50,16.50
2012,06,20,12,51,16.50
2012,06,20,12,52,16.60
2012,06,20,12,53,16.60
2012,06,20,12,54,16.60
2012,06,20,12,55,16.80
2012,06,20,12,56,16.90
2012,06,20,12,57,16.90
2012,06,20,12,58,17.00
2012,06,20,12,59,17.10
2012,06,20,13,00,17.10
2012,06,20,13,01,17.20
2012,06,20,13,02,17.30
2012,06,20,13,03,17.20
2012,06,20,13,04,17.20
2012,06,20,13,05,17.20
2012,06,20,13,06,17.20
2012,06,20,13,07,17.20
2012,06,20,13,08,17.30
2012,06,20,13,09,17.30
2012,06,20,13,10,17.30
2012,06,20,13,11,17.30
2012,06,20,13,12,17.30
2012,06,20,13,13,17.30
2012,06,20,13,14,17.30
2012,06,20,13,15,17.20
2012,06,20,13,16,17.20
2012,06,20,13,17,17.30
2012,06,20,13,18,17.30
2012,06,20,13,19,17.30
2012,06,20,13,20,17.30
2012,06,20,13,21,17.40
2012,06,20,13,22,17.40
2012,06,20,13,23,17.40
2012,06,20,13,24,17.40
2012,06,20,13,25,17.40
2012,06,20,13,26,17.40
2012,06,20,13,27,17.40
2012,06,20,13,28,17.40
2012,06,20,13,29,17.40
2012,06,20,13,30,17.40
2012,06,20,13,31,17.40
2012,06,20,13,32,17.30
2012,06,20,13,33,17.30
2012,06,20,13,34,17.30
2012,06,20,13,35,17.40
2012,06,20,13,36,17.40
2012,06,20,13,37,17.50
2012,06,20,13,38,17.50
2012,06,20,13,39,17.50
2012,06,20,13,40,17.60
2012,06,20,13,41,17.60
2012,06,20,13,42,17.70
2012,06,20,13,43,17.70
2012,06,20,13,44,17.80
2012,06,20,13,45,17.90
2012,06,20,13,46,17.90
2012,06,20,13,47,18.00
2012,06,20,13,48,18.10
2012,06,20,13,49,18.00
2012,06,20,13,50,18.00
2012,06,20,13,51,17.90
2012,06,20,13,52,17.90
2012,06,20,13,53,17.90
2012,06,20,13,54,17.80
2012,06,20,13,55,17.70
2012,06,20,13,56,17.70
2012,06,20,13,57,17.70
2012,06,20,13,58,17.60
2012,06,20,13,59,17.70
2012,06,20,14,00,17.70
2012,06,20,14,01,17.80
2012,06,20,14,02,17.80
2012,06,20,14,03,17.80
2012,06,20,14,04,17.80
2012,06,20,14,05,17.80
2012,06,20,14,06,17.70
2012,06,20,14,07,17.70
2012,06,20,14,08,17.80
2012,06,20,14,09,17.80
2012,06,20,14,10,18.00
2012,06,20,14,11,18.00
2012,06,20,14,12,18.00
2012,06,20,14,13,18.00
2012,06,20,14,14,18.00
2012,06,20,14,15,18.10
2012,06,20,14,16,18.00
2012,06,20,14,17,18.00
2012,06,20,14,18,18.00
2012,06,20,14,19,18.00
2012,06,20,14,20,18.00
2012,06,20,14,21,18.00
2012,06,20,14,22,18.00
2012,06,20,14,23,18.00
2012,06,20,14,24,18.10
2012,06,20,14,25,18.20
2012,06,20,14,26,18.30
2012,06,20,14,27,18.40
2012,06,20,14,28,18.50
2012,06,20,14,29,18.40
2012,06,20,14,30,18.30
2012,06,20,14,31,18.30
2012,06,20,14,32,18.20
2012,06,20,14,33,18.10
2012,06,20,14,34,18.00
2012,06,20,14,35,17.90
2012,06,20,14,36,17.80
2012,06,20,14,37,17.90
2012,06,20,14,38,17.90
2012,06,20,14,39,18.00
2012,06,20,14,40,18.00
2012,06,20,14,41,17.90
2012,06,20,14,42,17.90
2012,06,20,14,43,17.90
2012,06,20,14,44,17.90
2012,06,20,14,45,17.80
2012,06,20,14,46,17.80
2012,06,20,14,47,17.80
2012,06,20,14,48,17.80
2012,06,20,14,49,17.80
2012,06,20,14,50,17.80
2012,06,20,14,51,17.80
2012,06,20,14,52,17.80
2012,06,20,14,53,17.90
2012,06,20,14,54,18.00
2012,06,20,14,55,18.10
2012,06,20,14,56,18.30
2012,06,20,14,57,18.40
2012,06,20,14,58,18.50
2012,06,20,14,59,18.50
2012,06,20,15,00,18.40
2012,06,20,15,01,18.40
2012,06,20,15,02,18.40
2012,06,20,15,03,18.40
2012,06,20,15,04,18.40
2012,06,20,15,05,18.40
2012,06,20,15,06,18.50
2012,06,20,15,07,18.50
2012,06,20,15,08,18.60
2012,06,20,15,09,18.60
2012,06,20,15,10,18.60
2012,06,20,15,11,18.50
2012,06,20,15,12,18.40
2012,06,20,15,13,18.30
2012,06,20,15,14,18.20
2012,06,20,15,15,18.00
2012,06,20,15,16,17.90
2012,06,20,15,17,17.90
2012,06,20,15,18,17.80
2012,06,20,15,19,17.80
2012,06,20,15,20,17.70
2012,06,20,15,21,17.70
2012,06,20,15,22,17.70
2012,06,20,15,23,17.80
2012,06,20,15,24,17.80
2012,06,20,15,25,17.80
2012,06,20,15,26,17.80
2012,06,20,15,27,17.80
2012,06,20,15,28,17.80
2012,06,20,15,29,17.90
2012,06,20,15,30,17.90
2012,06,20,15,31,17.90
2012,06,20,15,32,17.80
2012,06,20,15,33,17.80
2012,06,20,15,34,17.80
2012,06,20,15,35,17.80
2012,06,20,15,36,17.80
2012,06,20,15,37,17.80
2012,06,20,15,38,17.80
2012,06,20,15,39,17.70
2012,06,20,15,40,17.70
2012,06,20,15,41,17.70
2012,06,20,15,42,17.80
2012,06,20,15,43,17.80
2012,06,20,15,44,17.90
2012,06,20,15,45,17.90
2012,06,20,15,46,17.90
2012,06,20,15,47,17.80
2012,06,20,15,48,17.70
2012,06,20,15,49,17.70
2012,06,20,15,50,17.70
2012,06,20,15,51,17.60
2012,06,20,15,52,17.50
2012,06,20,15,53,17.40
2012,06,20,15,54,17.30
2012,06,20,15,55,17.20
2012,06,20,15,56,17.20
2012,06,20,15,57,17.20
2012,06,20,15,58,17.20
2012,06,20,15,59,17.20
2012,06,20,16,00,17.20
2012,06,20,16,01,17.20
2012,06,20,16,02,17.20
2012,06,20,16,03,17.20
2012,06,20,16,04,17.20
2012,06,20,16,05,17.20
2012,06,20,16,06,17.20
2012,06,20,16,07,17.20
2012,06,20,16,08,17.20
2012,06,20,16,09,17.20
2012,06,20,16,10,17.20
2012,06,20,16,11,17.20
2012,06,20,16,12,17.10
2012,06,20,16,13,17.10
2012,06,20,16,14,17.20
2012,06,20,16,15,17.20
2012,06,20,16,16,17.20
2012,06,20,16,17,17.20
2012,06,20,16,18,17.20
2012,06,20,16,19,17.20
2012,06,20,16,20,17.20
2012,06,20,16,21,17.20
2012,06,20,16,22,17.20
2012,06,20,16,23,17.20
2012,06,20,16,24,17.20
2012,06,20,16,25,17.20
2012,06,20,16,26,17.20
2012,06,20,16,27,17.20
2012,06,20,16,28,17.30
2012,06,20,16,29,17.30
2012,06,20,16,30,17.40
2012,06,20,16,31,17.50
2012,06,20,16,32,17.50
2012,06,20,16,33,17.50
2012,06,20,16,34,17.50
2012,06,20,16,35,17.50
2012,06,20,16,36,17.50
2012,06,20,16,37,17.40
2012,06,20,16,38,17.50
2012,06,20,16,39,17.50
2012,06,20,16,40,17.60
2012,06,20,16,41,17.60
2012,06,20,16,42,17.60
2012,06,20,16,43,17.70
2012,06,20,16,44,17.70
2012,06,20,16,45,17.70
2012,06,20,16,46,17.70
2012,06,20,16,47,17.80
2012,06,20,16,48,17.80
2012,06,20,16,49,17.80
2012,06,20,16,50,17.80
2012,06,20,16,51,17.80
2012,06,20,16,52,17.80
2012,06,20,16,53,17.80
2012,06,20,16,54,17.90
2012,06,20,16,55,17.90
2012,06,20,16,56,17.90
2012,06,20,16,57,17.90
2012,06,20,16,58,17.90
2012,06,20,16,59,17.90
2012,06,20,17,00,17.90
2012,06,20,17,01,18.00
2012,06,20,17,02,18.00
2012,06,20,17,03,18.10
2012,06,20,17,04,18.20
2012,06,20,17,05,18.20
2012,06,20,17,06,18.20
2012,06,20,17,07,18.20
2012,06,20,17,08,18.20
2012,06,20,17,09,18.20
2012,06,20,17,10,18.20
2012,06,20,17,11,18.20
2012,06,20,17,12,18.20
2012,06,20,17,13,18.30
2012,06,20,17,14,18.30
2012,06,20,17,15,18.30
2012,06,20,17,16,18.30
2012,06,20,17,17,18.30
2012,06,20,17,18,18.30
2012,06,20,17,19,18.30
2012,06,20,17,20,18.30
2012,06,20,17,21,18.30
2012,06,20,17,22,18.40
2012,06,20,17,23,18.40
2012,06,20,17,24,18.30
2012,06,20,17,25,18.30
2012,06,20,17,26,18.30
2012,06,20,17,27,18.30
2012,06,20,17,28,18.30
2012,06,20,17,29,18.30
2012,06,20,17,30,18.30
2012,06,20,17,31,18.20
2012,06,20,17,32,18.20
2012,06,20,17,33,18.20
2012,06,20,17,34,18.20
2012,06,20,17,35,18.20
2012,06,20,17,36,18.30